Regional Weather Roundup
Issued by NWS Little Rock, AR

Home | Current Version | Previous Version | Graphics & Text | Print | Product List | Glossary On
Versions: 1 2 3 4 5 6 7 8 9 10 11 12 13 14 15 16 17 18 19 20 21 22 23 24 25 26 27 28 29 30 31
000
ASUS44 KLZK 270105
RWRLZK

WEATHER ROUNDUP FOR ARKANSAS
NATIONAL WEATHER SERVICE LITTLE ROCK AR
800 PM CDT SAT MAY 26 2018

NOTE: "FAIR" INDICATES FEW OR NO CLOUDS BELOW 12,000 FEET WITH NO
SIGNIFICANT WEATHER AND/OR OBSTRUCTIONS TO VISIBILITY.

ARZ001-003-010-029-270200-
NORTHWEST ARKANSAS

CITY           SKY/WX    TMP DP  RH WIND       PRES   REMARKS
FAYETTEVILLE   CLEAR     81  70  69 E3        29.84R
FORT SMITH     CLEAR     87  70  56 SE7       29.78R HX  92
HARRISON       CLEAR     80  67  64 SE5       29.87R
BENTONVILLE    CLEAR     84  67  56 SE6       29.86R HX  86
ROGERS         CLEAR     82  68  62 E7        29.85S HX  85
SILOAM SPGS    CLEAR     83  71  67 CALM      29.84S HX  87
HIGHFILL       CLEAR     83  67  58 E6        29.84S HX  85
SPRINGDALE     CLEAR     82  68  61 E6        29.86R HX  85
$$

ARZ004-005-016-270200-
NORTH CENTRAL ARKANSAS

CITY           SKY/WX    TMP DP  RH WIND       PRES   REMARKS
BATESVILLE     CLEAR     81  72  74 S3        29.84R HX  85
FLIPPIN        CLEAR     83  70  64 CALM      29.84R HX  87
MTN HOME       CLEAR     78  72  81 CALM      29.83R
$$

ARZ040-041-270200-
WEST CENTRAL ARKANSAS

CITY           SKY/WX    TMP DP  RH WIND       PRES   REMARKS
MENA           CLEAR     86  70  58 E5        29.83R HX  90
MOUNT IDA      CLEAR     80  73  79 CALM      29.81R
$$

ARZ009-017-025-026-028-270200-
NORTHEAST ARKANSAS

CITY           SKY/WX    TMP DP  RH WIND       PRES   REMARKS
CORNING        FAIR      84  73  70 W7        29.82R HX  91
JONESBORO      FAIR      83  74  74 S5        29.82R HX  89
NEWPORT        FAIR      82  71  69 S3        29.83R HX  86
WALNUT RIDGE     N/A     83  72  69 SW3       29.82R HX  88
BLYTHEVILLE    FAIR      82  68  62 S7        29.83R HX  85
$$

ARZ022-023-033-042-044-270200-
CENTRAL ARKANSAS

CITY           SKY/WX    TMP DP  RH WIND       PRES   REMARKS
LITTLE ROCK    MOCLDY    79  72  79 SE5       29.82R
N LITTLE ROCK    N/A     80  72  78 E3        29.78R
JACKSONVILLE   PTCLDY    82  73  74 SE3       29.81R HX  87
CONWAY         CLEAR     82  72  69 E6        29.81R HX  87
SEARCY         FAIR      81  76  84 CALM      29.82R HX  87
HOT SPRINGS    CLEAR     80  72  76 E5        29.83R
RUSSELLVILLE   CLEAR     81  72  74 CALM      29.81R HX  85
CLINTON        FAIR      79  72  78 CALM      29.83R
$$

ARZ036-270200-
EAST ARKANSAS

CITY           SKY/WX    TMP DP  RH WIND       PRES   REMARKS
WEST MEMPHIS   FAIR      77  74  90 CALM      29.82R
$$

ARZ050-053-066-070-073-270200-
SOUTHWEST ARKANSAS

CITY           SKY/WX    TMP DP  RH WIND       PRES   REMARKS
ARKADELPHIA    FAIR      79  72  79 NE6       29.81R
CAMDEN         FAIR      82  70  65 CALM      29.79R HX  86
TEXARKANA      CLEAR     82  71  69 E3        29.79R HX  86
EL DORADO      FAIR      82  74  76 NE5       29.80R HX  88
DE QUEEN       CLEAR     83  73  72 E9        29.77R HX  89
$$

ARZ056-057-069-270200-
SOUTHEAST ARKANSAS

CITY           SKY/WX    TMP DP  RH WIND       PRES   REMARKS
PINE BLUFF     FAIR      78  68  71 S7        29.83R
STUTTGART      FAIR      83  72  69 S6        29.83R HX  88

$$






USA.gov is the U.S. government's official web portal to all federal, state and local government web resources and services.